Temp
5 5 6 7 8 8 8 9 9 8 7 8 9 8 7 5 5 5 5 3 3 3 3 4 3 4 4 4 3 3 2 2 2 2 2 2 2 2 2 2 1 2 2 2
6 6 7 8 8 8 8 9 9 9 8 8 9 9 6 6 6 5 5 4 4 3 3 5 5 5 5 4 4 4 3 3 3 3 3 3 3 2 2 2 2 2 2 2
7 8 7 7 7 7 8 9 8 9 8 8 9 9 9 8 7 6 5 5 5 4 3 5 5 5 5 5 5 4 4 4 4 3 3 3 3 2 3 3 3 2 2 2
7 7 7 7 7 7 8 8 7 8 8 9 9 10 9 9 8 7 6 6 5 5 4 4 6 6 5 5 5 4 4 4 4 4 4 4 3 3 3 3 2 2 1 1
7 7 6 7 8 8 8 7 8 8 9 9 9 9 8 9 8 8 7 6 6 5 5 5 6 6 6 6 5 5 5 4 4 4 4 4 3 3 3 3 2 2 2 1
7 7 7 7 8 7 8 7 7 8 8 9 9 9 8 9 9 9 8 7 6 6 6 5 5 5 6 6 6 5 5 5 5 4 4 4 4 3 3 3 3 2 1 1
6 7 7 7 7 7 7 7 8 8 9 9 9 9 10 7 10 9 8 9 7 6 6 6 6 5 4 6 6 6 5 5 5 5 5 4 4 4 3 3 2 1 2 1
7 7 7 7 7 8 7 8 8 5 6 9 8 9 9 10 9 8 8 8 8 8 7 6 6 6 5 6 6 6 5 5 5 4 4 4 3 3 3 3 2 2 1 1
7 8 8 7 7 7 8 8 8 9 8 8 9 9 9 9 9 8 8 8 8 7 7 7 6 6 5 5 4 6 6 5 5 4 4 2 3 3 3 2 2 2 2 1
7 8 8 7 7 7 7 8 8 8 6 7 9 10 10 9 9 8 8 8 8 7 7 7 7 6 6 5 5 5 6 5 5 5 4 3 3 3 3 2 2 3 3 2
6 7 8 7 6 7 6 7 7 8 8 8 9 10 9 9 8 8 8 7 7 7 7 7 7 7 6 5 4 4 6 6 5 5 4 4 4 3 3 3 3 3 2 1
6 7 7 7 7 7 8 7 7 8 8 7 8 8 8 8 8 8 7 7 7 7 7 7 7 7 7 7 6 6 6 6 6 5 4 4 4 4 4 2 2 2 2 1
6 6 7 7 7 6 7 7 7 7 7 5 6 8 8 8 7 7 7 7 6 6 6 6 6 7 6 6 6 6 6 5 5 5 4 4 4 4 3 3 3 2 2 1
5 6 6 7 7 7 6 7 7 7 7 7 7 8 8 7 8 8 7 7 6 6 6 5 6 6 6 6 6 6 6 6 5 5 4 4 3 3 3 3 2 2 1 1
5 5 6 6 7 7 7 7 7 7 7 7 7 8 8 8 8 7 7 6 6 6 6 6 6 6 6 6 6 6 6 5 5 4 3 3 3 3 3 2 2 2 2 1
4 5 5 6 6 7 7 7 7 7 7 7 7 8 8 8 7 7 6 6 6 6 6 6 6 6 6 6 5 5 5 4 4 4 4 3 3 3 3 2 2 1 0 0
3 4 5 5 6 6 7 7 7 7 7 7 7 7 7 8 7 6 6 5 5 6 6 6 6 6 6 5 5 5 5 4 4 4 3 3 3 3 2 1 1 0 -0 -1
2 3 5 5 5 4 6 6 6 6 7 7 7 7 7 7 7 6 5 4 5 5 5 5 5 5 5 5 4 4 4 4 3 3 3 3 2 2 1 1 0 -0 -1 -1
1 2 4 4 4 5 6 6 6 6 7 7 7 7 7 7 6 5 5 5 4 4 5 5 5 5 4 4 3 3 3 3 3 3 2 2 1 1 0 -0 -1 -1 -2 -2
1 2 2 3 4 5 5 6 6 6 6 7 7 7 6 6 5 5 4 5 5 4 4 4 4 3 3 3 3 3 3 2 2 2 1 1 0 -0 -0 -1 -1 -2 -3 -3
0 1 2 3 4 5 6 6 7 6 6 7 7 6 6 5 5 4 4 4 4 4 3 3 3 2 2 2 2 2 2 1 1 1 0 -0 -0 -1 -1 -2 -3 -3 -4 -4
-0 1 1 2 3 4 5 5 6 6 6 6 5 5 5 4 4 4 4 4 4 3 3 2 2 2 2 2 2 2 1 1 0 -0 -0 -1 -1 -2 -3 -3 -4 -4 -4 -5
0 1 3 4 4 5 5 6 6 6 6 5 5 5 5 5 4 4 4 4 4 3 2 2 2 2 2 2 1 1 0 -0 -1 -1 -1 -2 -3 -3 -4 -4 -5 -5 -6 -7
2 2 2 3 3 5 5 5 5 5 5 5 5 5 4 4 4 4 4 4 3 3 2 2 2 2 1 1 0 -0 -1 -1 -1 -2 -2 -3 -4 -4 -5 -6 -6 -7 -7 -8
2 2 3 2 3 3 4 5 5 5 5 5 5 4 4 4 4 4 4 3 3 2 2 2 1 1 1 0 -0 -1 -1 -2 -2 -3 -3 -4 -5 -6 -6 -7 -7 -8 -8 -9
1 2 2 2 3 3 3 4 4 5 5 4 4 4 4 4 3 3 3 3 2 2 2 1 1 1 0 -0 -1 -2 -2 -3 -3 -4 -5 -6 -6 -7 -7 -8 -8 -9 -9 -10
Height
3115 3118 3115 3115 3115 3114 3113 3110 3109 3111 3112 3112 3110 3106 3109 3107 3111 3111 3115 3114 3116 3117 3116 3116 3117 3118 3120 3122 3124 3125 3128 3131 3133 3136 3138 3141 3144 3147 3149 3151 3153 3155 3156 3157
3114 3111 3111 3112 3112 3113 3113 3112 3109 3110 3110 3110 3108 3108 3108 3108 3111 3112 3114 3113 3116 3117 3117 3117 3119 3120 3121 3123 3126 3126 3129 3131 3133 3135 3138 3141 3143 3145 3147 3149 3151 3152 3153 3155
3107 3107 3107 3108 3110 3111 3111 3109 3109 3109 3110 3108 3107 3104 3106 3109 3110 3111 3113 3115 3115 3116 3117 3117 3118 3120 3121 3122 3125 3126 3128 3131 3132 3134 3137 3140 3142 3144 3145 3147 3148 3150 3151 3150
3104 3105 3105 3105 3106 3108 3106 3107 3110 3108 3108 3104 3105 3103 3104 3104 3107 3109 3110 3112 3114 3114 3116 3116 3117 3119 3120 3122 3125 3126 3128 3130 3131 3134 3136 3138 3140 3142 3143 3144 3145 3146 3146 3147
3099 3101 3102 3102 3104 3105 3106 3107 3107 3107 3105 3103 3102 3103 3101 3103 3103 3105 3107 3108 3110 3112 3114 3115 3115 3117 3119 3121 3122 3125 3126 3128 3130 3131 3133 3135 3137 3139 3139 3140 3141 3141 3140 3141
3096 3097 3098 3099 3101 3102 3104 3105 3107 3106 3103 3101 3100 3099 3102 3098 3098 3099 3100 3103 3107 3108 3110 3113 3115 3115 3116 3118 3120 3121 3123 3125 3127 3128 3130 3131 3133 3134 3134 3133 3135 3135 3135 3136
3091 3092 3094 3095 3098 3099 3101 3102 3101 3100 3096 3095 3095 3096 3095 3099 3096 3099 3100 3102 3102 3105 3107 3110 3112 3112 3114 3114 3116 3118 3120 3122 3123 3124 3125 3127 3129 3130 3130 3130 3128 3129 3130 3130
3085 3086 3087 3089 3092 3093 3095 3097 3095 3103 3100 3090 3096 3093 3091 3093 3094 3096 3098 3099 3100 3101 3102 3105 3107 3109 3110 3111 3112 3114 3116 3118 3119 3119 3120 3121 3122 3123 3124 3125 3124 3124 3124 3122
3079 3079 3081 3085 3088 3090 3090 3089 3092 3090 3092 3091 3090 3088 3089 3091 3093 3094 3095 3096 3096 3097 3098 3100 3102 3104 3106 3108 3107 3108 3111 3113 3115 3115 3115 3115 3116 3117 3118 3120 3120 3120 3117 3115
3075 3076 3077 3081 3085 3085 3086 3087 3089 3088 3092 3090 3085 3083 3084 3087 3090 3091 3093 3094 3094 3094 3093 3094 3096 3098 3101 3102 3104 3102 3104 3107 3109 3109 3106 3103 3109 3111 3112 3113 3112 3111 3108 3107
3071 3074 3073 3075 3078 3078 3082 3082 3083 3084 3085 3085 3082 3081 3083 3084 3088 3089 3090 3091 3092 3091 3090 3090 3091 3091 3093 3095 3096 3096 3097 3100 3101 3102 3102 3102 3104 3104 3106 3107 3106 3104 3102 3100
3066 3069 3068 3069 3074 3074 3073 3075 3078 3079 3081 3083 3082 3081 3083 3084 3085 3086 3087 3087 3088 3088 3088 3088 3088 3089 3089 3089 3090 3091 3092 3094 3095 3096 3097 3097 3099 3100 3100 3100 3099 3098 3096 3094
3062 3061 3064 3066 3068 3069 3068 3071 3073 3076 3077 3078 3083 3079 3079 3081 3081 3083 3083 3084 3084 3085 3085 3085 3085 3085 3085 3085 3086 3087 3088 3089 3090 3091 3092 3092 3093 3094 3093 3093 3092 3091 3089 3087
3056 3055 3055 3056 3058 3063 3065 3066 3067 3070 3071 3073 3074 3073 3075 3077 3076 3078 3079 3079 3081 3080 3081 3082 3081 3081 3081 3081 3082 3083 3084 3085 3086 3086 3087 3088 3088 3089 3088 3086 3085 3083 3081 3079
3049 3049 3052 3054 3056 3056 3057 3058 3062 3062 3065 3067 3069 3069 3069 3070 3071 3074 3072 3072 3074 3075 3075 3076 3076 3077 3078 3078 3078 3078 3079 3080 3081 3082 3084 3082 3083 3083 3080 3078 3076 3074 3072 3070
3043 3044 3048 3048 3051 3051 3051 3052 3054 3056 3058 3060 3062 3062 3065 3066 3066 3068 3069 3068 3069 3069 3069 3070 3070 3071 3072 3073 3073 3074 3075 3076 3077 3077 3077 3076 3076 3075 3073 3070 3068 3065 3063 3060
3038 3039 3043 3042 3046 3047 3044 3047 3049 3050 3052 3054 3056 3058 3061 3060 3061 3063 3063 3061 3062 3063 3064 3064 3064 3065 3065 3066 3068 3069 3070 3070 3071 3071 3070 3070 3069 3067 3065 3062 3060 3058 3055 3052
3033 3034 3039 3041 3041 3038 3039 3043 3045 3045 3046 3048 3050 3052 3054 3054 3055 3054 3055 3055 3054 3055 3056 3057 3058 3059 3060 3061 3062 3063 3064 3064 3064 3064 3064 3062 3060 3058 3056 3054 3052 3049 3047 3045
3027 3029 3032 3033 3034 3036 3034 3036 3039 3040 3040 3042 3043 3045 3047 3048 3045 3046 3047 3046 3046 3047 3049 3051 3052 3053 3054 3055 3057 3058 3058 3058 3058 3057 3055 3054 3052 3050 3048 3045 3043 3041 3039 3036
3021 3024 3028 3028 3029 3026 3029 3032 3035 3036 3032 3036 3037 3039 3041 3040 3038 3041 3037 3038 3039 3040 3042 3044 3046 3047 3048 3050 3051 3052 3052 3051 3050 3049 3047 3046 3044 3042 3040 3038 3035 3033 3031 3029
3012 3015 3017 3021 3021 3020 3023 3027 3029 3031 3029 3030 3031 3034 3035 3034 3032 3032 3031 3032 3032 3033 3035 3037 3040 3042 3044 3045 3045 3045 3045 3044 3043 3042 3041 3039 3037 3035 3032 3030 3028 3026 3025 3022
3008 3010 3011 3016 3016 3015 3019 3021 3025 3024 3025 3026 3026 3028 3027 3027 3024 3025 3025 3025 3026 3027 3030 3032 3035 3037 3038 3039 3039 3039 3038 3037 3037 3035 3034 3031 3029 3027 3025 3023 3021 3019 3017 3014
3003 3004 3006 3008 3007 3011 3013 3015 3018 3020 3020 3020 3020 3021 3020 3018 3018 3019 3019 3020 3021 3023 3026 3028 3030 3031 3031 3032 3031 3031 3030 3030 3029 3027 3025 3023 3021 3019 3017 3015 3012 3010 3007 3005
2997 3000 3000 3004 3005 3007 3009 3010 3013 3013 3014 3014 3013 3013 3013 3011 3011 3012 3013 3014 3016 3018 3020 3022 3023 3024 3024 3024 3024 3023 3022 3021 3020 3018 3016 3014 3012 3010 3008 3005 3003 3001 3000 2997
2995 2996 2996 2996 3000 3002 3003 3004 3006 3007 3007 3007 3007 3006 3006 3005 3005 3005 3007 3009 3011 3012 3014 3016 3016 3017 3017 3017 3016 3015 3014 3013 3011 3009 3007 3005 3002 3000 2999 2998 2996 2993 2993 2989
2987 2988 2989 2988 2994 2997 2998 3000 3000 3000 3000 3000 3000 2999 2999 2999 3000 3001 3001 3003 3005 3006 3008 3009 3010 3010 3009 3009 3008 3007 3006 3004 3002 2999 2997 2995 2994 2992 2990 2989 2988 2986 2983 2981
Wind_Speed
12 14 18 15 17 16 10 8 11 4 3 8 9 6 4 6 8 10 12 13 11 11 10 12 15 14 14 14 14 16 18 18 19 19 20 19 20 20 19 16 18 18 18 17
15 18 16 16 14 15 12 12 13 7 4 6 9 11 5 6 9 10 12 13 15 14 15 16 17 16 16 16 16 17 18 18 17 17 17 18 19 20 18 19 20 18 18 18
19 8 13 15 16 15 14 16 8 9 7 10 12 15 12 9 10 13 13 13 16 18 18 17 20 18 17 17 16 16 16 16 16 16 18 19 21 23 22 20 20 20 18 17
20 15 12 14 17 17 18 13 8 5 9 9 10 2 13 14 13 15 17 17 17 19 19 19 19 20 19 18 18 18 19 18 18 18 19 19 19 19 18 19 19 21 24 23
23 21 17 18 18 15 11 11 11 12 13 10 9 11 10 11 12 16 18 19 20 20 22 22 17 16 16 17 18 19 20 20 20 21 21 20 20 21 22 23 22 24 25 26
23 17 19 18 17 15 13 9 11 14 15 12 12 18 7 14 13 10 16 18 21 23 22 24 23 21 20 20 21 22 22 21 22 22 21 21 20 21 24 27 22 25 27 28
27 21 21 18 18 16 16 14 17 10 13 10 10 8 14 7 7 7 6 9 19 24 25 25 26 27 26 26 25 24 24 23 24 24 22 20 21 23 25 28 30 25 30 29
31 30 26 20 24 21 20 23 21 5 9 10 8 9 18 9 5 7 9 11 13 18 25 28 29 30 29 30 29 27 25 24 24 25 23 24 23 25 26 25 29 27 35 37
32 31 26 25 20 21 17 24 25 27 11 8 15 10 11 11 9 7 7 7 8 13 19 26 29 30 31 30 33 34 30 29 29 29 30 32 26 26 28 27 29 27 25 46
22 25 20 22 19 19 20 11 21 19 12 11 18 18 7 9 7 8 6 7 6 6 10 16 22 27 30 31 32 36 35 33 31 29 34 26 25 26 28 28 26 27 34 32
36 20 24 20 25 25 19 18 18 16 25 10 10 14 9 7 6 8 9 9 6 4 4 6 10 12 21 27 29 32 32 31 34 33 34 31 27 30 28 28 29 31 32 32
37 26 26 26 25 24 22 22 24 21 17 19 17 19 5 9 11 10 8 11 9 9 9 10 10 10 13 19 21 22 22 24 30 34 33 31 28 29 27 28 29 30 31 32
36 36 22 26 22 20 23 22 20 22 22 10 15 15 8 9 8 10 11 12 12 11 12 13 14 15 16 18 18 20 22 20 21 26 29 29 27 25 26 29 31 33 35 37
37 30 37 27 28 24 26 24 25 24 21 21 25 20 15 13 10 12 13 15 14 16 18 13 15 16 19 19 17 16 16 19 22 21 22 23 24 25 29 31 34 36 36 37
31 39 32 34 27 26 28 29 29 28 28 28 26 24 21 18 17 15 12 15 16 20 19 21 21 20 22 23 21 21 20 22 22 22 22 25 28 30 31 34 36 38 39 35
29 29 29 33 31 29 27 25 26 29 30 30 29 29 23 20 16 15 15 19 21 19 15 19 23 22 24 27 28 26 26 24 24 27 29 30 31 31 33 36 37 35 34 34
24 29 27 30 28 28 32 28 27 27 30 26 29 30 23 23 20 19 18 20 24 23 22 19 21 24 25 28 29 30 28 28 27 27 27 28 31 33 34 33 33 34 35 36
17 22 28 22 19 15 23 21 25 28 27 26 27 25 22 20 21 19 19 22 26 26 25 24 21 21 24 25 25 24 22 22 22 24 27 30 32 31 31 32 33 34 34 34
18 16 19 22 21 20 22 21 20 21 24 22 24 24 21 21 23 29 27 26 27 28 29 28 26 23 23 23 22 21 21 22 25 27 28 28 28 29 30 30 31 31 31 31
17 21 23 16 21 19 23 22 17 18 25 18 18 18 18 21 27 25 25 24 25 26 28 27 27 25 23 22 21 22 23 24 25 26 26 26 27 26 27 27 28 28 28 27
21 24 29 26 16 19 17 16 19 19 24 11 13 14 17 21 22 19 22 25 23 23 25 26 26 24 22 21 22 22 23 24 24 23 24 24 25 25 26 26 26 26 26 26
15 18 18 22 23 20 15 19 21 24 18 15 17 15 18 19 28 22 22 22 21 21 24 26 25 23 22 22 23 24 24 23 23 23 23 24 24 23 24 25 26 26 26 26
26 16 18 18 20 25 21 23 22 17 18 19 17 17 23 24 27 25 23 23 23 23 26 26 25 24 23 24 25 24 23 23 23 24 24 24 23 23 24 24 25 25 25 26
21 26 25 15 17 18 17 19 17 20 19 21 25 24 25 24 24 24 24 24 25 26 27 27 26 26 26 26 26 25 24 24 26 26 24 24 24 24 24 24 24 25 25 27
27 21 27 31 29 26 20 22 20 22 22 23 22 24 25 24 24 24 25 25 26 28 30 28 28 27 27 28 27 27 27 28 28 27 25 25 25 25 24 23 25 27 27 28
25 30 30 32 28 25 20 20 20 24 22 22 24 26 26 25 24 23 25 27 29 31 31 30 28 29 30 30 31 31 31 31 30 28 27 25 25 25 24 26 26 27 29 30
Wind_Direction
226 224 231 237 233 252 267 267 258 231 204 250 260 237 243 163 174 189 187 204 191 189 196 180 179 159 158 164 170 168 173 172 175 180 188 187 189 192 195 200 210 222 227 229
211 234 232 239 236 233 239 247 251 223 233 255 266 248 264 187 198 204 197 210 196 196 197 194 184 177 172 173 176 174 178 182 180 186 190 195 199 206 210 214 222 230 238 242
218 254 216 220 218 215 225 239 228 251 250 264 262 241 214 220 217 207 204 207 206 203 202 204 195 189 184 182 186 182 185 187 188 189 200 206 211 216 222 226 231 238 245 257
226 223 218 201 212 214 222 224 219 252 270 291 248 279 246 210 216 218 213 205 209 205 206 207 204 201 198 195 197 197 197 198 199 202 206 213 221 230 240 247 251 254 255 258
221 217 215 210 214 212 235 223 222 260 268 281 234 254 221 227 210 221 222 219 208 208 207 207 207 206 206 208 210 211 211 212 214 219 224 229 233 240 248 250 254 258 263 259
223 221 215 215 217 217 224 224 237 245 248 250 229 244 197 211 221 221 220 216 221 213 210 209 211 215 215 217 219 222 222 223 225 230 232 240 246 249 255 266 259 261 270 270
217 217 209 209 211 214 217 219 229 235 229 236 246 236 248 250 219 216 233 233 227 225 219 217 215 214 215 219 220 224 227 230 233 236 239 245 252 254 254 263 274 259 262 264
211 215 209 212 215 214 219 223 228 207 267 222 218 238 249 254 221 240 257 250 239 232 229 223 222 223 221 227 230 230 230 234 239 242 242 242 246 254 258 265 271 282 261 262
212 223 213 217 218 221 233 223 231 257 281 277 232 225 241 237 254 251 258 256 252 236 224 229 228 229 229 229 235 243 241 243 245 254 250 251 251 259 266 270 272 277 291 293
231 224 210 204 208 217 226 229 225 229 221 244 241 249 242 189 226 236 260 252 242 240 236 231 230 230 230 229 233 248 248 246 250 253 259 279 265 259 261 268 272 279 286 289
224 224 207 199 213 214 211 225 218 232 236 236 255 233 227 196 234 250 259 245 228 225 262 262 252 248 232 227 230 237 246 243 244 247 251 261 260 263 266 272 268 277 284 286
212 219 229 217 229 224 222 221 216 224 221 222 251 256 191 256 260 255 247 241 227 258 266 270 262 258 251 245 240 239 244 246 246 245 242 254 258 270 267 266 275 280 285 284
209 221 219 228 209 215 226 223 227 237 238 211 246 240 239 250 245 251 266 235 244 252 259 268 264 256 244 239 238 244 251 249 245 242 245 255 265 267 276 279 282 285 287 287
213 217 221 225 223 218 222 229 228 229 228 239 246 259 245 253 256 266 261 245 245 258 258 250 263 262 242 226 218 224 231 237 239 243 246 254 267 275 278 280 282 281 283 283
212 222 224 232 231 231 228 226 227 232 234 236 244 247 258 269 254 270 252 230 259 269 263 258 251 253 239 230 225 228 236 239 244 246 249 259 268 270 274 280 282 285 287 285
210 220 226 229 225 231 236 233 234 236 237 243 248 254 260 267 274 262 260 255 261 266 265 253 251 254 241 233 234 237 238 240 247 250 257 263 267 274 281 284 287 287 287 289
214 214 225 233 225 233 241 235 242 241 240 242 246 251 259 259 258 255 263 255 256 255 263 264 252 249 243 236 238 240 246 251 252 254 258 267 276 282 285 286 285 286 288 288
215 211 218 216 219 223 234 236 239 242 242 245 249 248 251 258 257 253 251 251 258 250 251 254 254 251 246 243 242 239 241 248 257 267 275 281 285 286 286 286 287 286 286 286
216 210 218 217 225 241 241 230 225 239 245 243 247 248 250 262 254 265 272 260 256 249 250 252 259 251 245 239 236 244 255 266 275 281 283 284 285 287 288 289 289 288 288 289
225 207 213 211 228 231 237 234 242 239 252 241 242 244 245 258 260 264 262 260 265 253 249 251 246 234 229 234 245 257 268 276 281 283 285 288 290 291 293 292 288 286 285 287
203 211 212 219 230 240 230 236 218 215 250 241 227 239 255 258 271 249 247 260 264 244 241 236 227 227 235 247 259 270 277 279 280 283 286 290 292 291 289 287 285 283 283 285
202 196 205 223 229 235 220 213 219 257 262 242 255 268 263 258 251 256 261 255 247 234 230 226 227 235 247 259 269 273 274 275 277 282 288 289 287 286 286 283 282 283 287 292
236 222 222 220 239 242 240 242 257 258 250 256 258 271 278 286 255 257 255 246 236 226 225 227 233 245 256 264 268 268 271 275 281 288 289 288 284 283 284 285 288 291 295 298
237 233 246 248 244 247 240 250 247 254 258 260 277 284 280 287 259 252 241 236 232 227 227 233 243 254 260 262 264 268 273 276 285 290 288 286 286 288 288 289 290 292 295 296
238 252 250 252 252 262 253 257 261 261 267 275 280 280 279 274 255 242 236 236 231 228 233 240 250 259 260 261 264 269 274 283 291 294 290 286 286 287 286 286 289 292 297 298
238 240 244 251 252 248 264 262 265 266 274 270 273 271 272 264 246 241 240 234 232 234 240 247 256 261 261 263 266 271 274 283 290 292 288 284 284 283 284 288 290 295 299 299